Location: Babice
(50.3480°N, 22.9363°E)
Time: 12:21:40
(UTC+00:00)

Cosmos 2221 Rocket - Pass Details

Date: 14 July 2020
Orbit: 619 x 649 km, 82.5° (Epoch: 07 August)

Event Time Altitude Azimuth Distance (km) Brightness Sun altitude
Rises 00:31:23 0° 349° (N) 2,916 7.9 -13.5°
Reaches altitude 10° 00:33:37 10° 349° (N) 2,002 6.9 -13.3°
Maximum altitude 00:38:04 85° 261° (W) 630 3.5 -13.0°
Enters shadow 00:41:59 13° 174° (S) 1,795 5.5 -12.7°
